Location: Peebles
(55.6412°N, 3.1714°W)
Time: 11:54:20
(UTC+01:00)

deb NNS O-4 - Pass Details

Date: 30 June 2022
Orbit: 977 x 1074 km, 89.9° (Epoch: 15 August)

Event Time Altitude Azimuth Distance (km) Brightness Sun altitude
Exits shadow 01:47:40 - 147° (SSE) 3,445 ? -10.9°
Reaches altitude 10° 01:49:12 10° 143° (SE) 2,907 ? -10.9°
Maximum altitude 01:55:23 42° 76° (ENE) 1,479 ? -10.7°
Drops below altitude 10° 02:01:33 10° 8° (N) 2,895 ? -10.6°
Sets 02:04:13 0° 2° (N) 3,841 ? -10.5°
